Truth Or Consequences, NM

7:41 PM MDT on July 21, 2017 (GMT -0600)
Truth Or Consequences Municipal

Weather History for KTCS - March, 2012

Change the Weather History Date:

Friday, March 9, 2012

  Actual Average Record
Temperature  
Mean Temperature 39 °F -  
Max Temperature 49 °F 64 °F 79 °F (2017)
Min Temperature 31 °F 37 °F 28 °F (1998)
Degree Days  
Heating Degree Days 26    
Month to date heating degree days  
Since 1 July heating degree days  
Cooling Degree Days 0    
Month to date cooling degree days  
Year to date cooling degree days  
Moisture  
Dew Point 20 °F    
Average Humidity 51    
Maximum Humidity 69    
Minimum Humidity 33    
Precipitation  
Precipitation 0.00 in - 0.00 in (2017)
Month to date precipitation T  
Year to date precipitation 0.17  
Sea Level Pressure  
Sea Level Pressure 30.32 in    
Wind  
Wind Speed 16 mph (NNE)    
Max Wind Speed 25 mph    
Max Gust Speed 35 mph    
Visibility 10 miles    
Events      
T = Trace of Precipitation, MM = Missing Value Source: NWS Daily Summary

Daily Weather History Graph

Daily Weather History Graph

Search for Another Location

Airport or City:

Trip Planner

Search our weather history database for the weather conditions in past years. The results will help you decide how hot, cold, wet, or windy it might be!

Date:

Astronomy

Mar. 09, 2012 Rise Set
Actual Time 6:26 AM MST 6:12 PM MST
Civil Twilight 6:01 AM MST 6:37 PM MST
Nautical Twilight 5:33 AM MST 7:06 PM MST
Astronomical Twilight 5:04 AM MST 7:35 PM MST
Moon 8:06 PM MST (3/9) 6:54 AM MST (3/9)
Length of Visible Light 12h 35m
Length of Day
11h 46m
Full, 97% of the Moon is Illuminated
Mar 9
Full
Mar 14
Last Quarter
Mar 22
New
Mar 30
First Quarter
Apr 6
Full

Hourly Weather History & Observations

Time (MST) Temp. Windchill Dew Point Humidity Pressure Visibility Wind Dir Wind Speed Gust Speed Precip Events Conditions
12:53 AM 36.0 °F 26.3 °F 15.1 °F 43% 30.42 in 10.0 mi NNE 16.1 mph 21.9 mph N/A   Mostly Cloudy
1:53 AM 34.0 °F 25.5 °F 18.0 °F 52% 30.42 in 10.0 mi North 11.5 mph 19.6 mph N/A   Scattered Clouds
2:53 AM 33.1 °F 22.6 °F 19.0 °F 56% 30.39 in 10.0 mi North 16.1 mph - N/A   Partly Cloudy
3:53 AM 33.1 °F 23.4 °F 18.0 °F 54% 30.39 in 10.0 mi NNE 13.8 mph - N/A   Mostly Cloudy
4:53 AM 32.0 °F 22.1 °F 19.9 °F 61% 30.40 in 10.0 mi NNE 13.8 mph 23.0 mph N/A   Mostly Cloudy
5:53 AM 30.9 °F 19.4 °F 21.9 °F 69% 30.43 in 10.0 mi NNE 17.3 mph 21.9 mph N/A   Scattered Clouds
6:53 AM 32.0 °F 20.1 °F 21.0 °F 64% 30.43 in 10.0 mi NNE 19.6 mph 26.5 mph N/A   Overcast
7:53 AM 35.1 °F 24.1 °F 21.0 °F 57% 30.43 in 10.0 mi NNE 19.6 mph 26.5 mph N/A   Overcast
8:53 AM 37.9 °F 27.9 °F 19.9 °F 48% 30.43 in 10.0 mi NNE 19.6 mph 27.6 mph N/A   Partly Cloudy
9:53 AM 39.9 °F 30.5 °F 19.0 °F 43% 30.41 in 10.0 mi NE 19.6 mph 27.6 mph N/A   Clear
10:53 AM 43.0 °F 35.7 °F 19.0 °F 38% 30.38 in 10.0 mi NNE 15.0 mph 23.0 mph N/A   Partly Cloudy
11:53 AM 45.0 °F 37.9 °F 18.0 °F 34% 30.34 in 10.0 mi NNE 16.1 mph 32.2 mph N/A   Scattered Clouds
12:53 PM 46.0 °F 38.8 °F 19.0 °F 34% 30.29 in 10.0 mi NNE 18.4 mph 33.4 mph N/A   Overcast
1:53 PM 48.0 °F - 21.0 °F 34% 30.25 in 10.0 mi North 17.3 mph 34.5 mph N/A   Overcast
2:53 PM 46.9 °F - 21.0 °F 36% 30.24 in 10.0 mi NNE 18.4 mph 28.8 mph N/A   Scattered Clouds
3:53 PM 46.9 °F - 21.0 °F 36% 30.21 in 10.0 mi NNE 16.1 mph 24.2 mph N/A   Overcast
4:53 PM 44.1 °F 36.2 °F 21.0 °F 40% 30.22 in 10.0 mi NNE 18.4 mph 28.8 mph N/A   Overcast
5:53 PM 41.0 °F 31.6 °F 21.0 °F 45% 30.24 in 10.0 mi NNE 20.7 mph 27.6 mph N/A   Overcast
6:53 PM 39.0 °F 29.6 °F 21.0 °F 49% 30.24 in 10.0 mi NNE 18.4 mph 28.8 mph N/A   Overcast
7:53 PM 37.0 °F 25.9 °F 21.9 °F 54% 30.24 in 10.0 mi NNE 23.0 mph 31.1 mph N/A   Clear
8:53 PM 35.1 °F 24.8 °F 23.0 °F 61% 30.21 in 10.0 mi NNE 17.3 mph 23.0 mph N/A   Clear
9:53 PM 34.0 °F 23.4 °F 21.9 °F 61% 30.22 in 10.0 mi NNE 17.3 mph 23.0 mph N/A   Clear
10:53 PM 35.1 °F 25.2 °F 23.0 °F 61% 30.19 in 10.0 mi NNE 16.1 mph 25.3 mph N/A   Overcast
11:53 PM 35.1 °F 27.4 °F 23.0 °F 61% 30.18 in 10.0 mi North 10.4 mph 19.6 mph N/A   Overcast